Location: Laguna de la Cañada del Gallo
(40.3974°N, 5.2096°W)
Time: 10:45:17
(UTC+00:00)

ATLAS 5 CENTAUR R/B - Pass Details

Date: 18 April 2024
Orbit: 421 x 1169 km, 63.3° (Epoch: 22 May)

Event Time Altitude Azimuth Distance (km) Brightness Sun altitude
Rises 20:45:14 0° 259° (W) 2,372 5.3 -18.4°
Reaches altitude 10° 20:48:00 10° 286° (WNW) 1,547 4.7 -18.9°
Maximum altitude 20:49:54 14° 321° (NW) 1,355 4.3 -19.2°
Drops below altitude 10° 20:51:55 10° 355° (N) 1,651 4.3 -19.5°
Sets 20:55:04 0° 21° (NNE) 2,658 5.0 -20.0°
